Regional Weather Roundup
Issued by NWS

Home | Current Version | Previous Version | Text Only | Print | Product List | Glossary On
Versions: 1 2 3 4 5 6 7 8 9 10 11 12 13 14 15 16 17 18 19 20 21 22 23 24 25 26 27 28
000
ASUS44 KBMX 110610
RWRAL

ALABAMA REGIONAL WEATHER ROUNDUP
NATIONAL WEATHER SERVICE BIRMINGHAM AL
1200 AM CST MON DEC 11 2017

NOTE: "FAIR" INDICATES FEW OR NO CLOUDS BELOW 12,000 FEET
WITH NO SIGNIFICANT WEATHER AND/OR OBSTRUCTIONS TO VISIBILITY.

THE REMARK "TC" DENOTES TEMPERATURE IN DEGREES CELSIUS.

ALZ001>011-014-016>018-020-110700-
NORTH ALABAMA

CITY           SKY/WX    TMP DP  RH WIND       PRES   REMARKS
MUSCLE SHOALS  CLEAR     35  24  64 SW3       30.20F
6HR MIN TEMP:  33; 6HR MAX TEMP:  42;

HUNTSVILLE     CLEAR     33  27  78 SE5       30.21F WCI  29
6HR MIN TEMP:  33; 6HR MAX TEMP:  42;

DECATUR        CLEAR     35  27  72 S7        30.22F WCI  29
6HR MIN TEMP:  35; 6HR MAX TEMP:  45;

HALEYVILLE     NOT AVBL
GADSDEN        CLEAR     27  26  96 CALM      30.25F
6HR MIN TEMP:  27; 6HR MAX TEMP:  35;

$$

ALZ012-013-022-023-030>036-040>044-110700-
WEST CENTRAL ALABAMA

CITY           SKY/WX    TMP DP  RH WIND       PRES   REMARKS
TUSCALOOSA     CLEAR     32  31  96 NE3       30.27F
6HR MIN TEMP:  31; 6HR MAX TEMP:  43;

DEMOPOLIS        N/A     30  29  94 CALM      30.28F
6HR MIN TEMP:  31; 6HR MAX TEMP:  37;

$$

ALZ015-024>026-033>036-041>044-110700-
CENTRAL ALABAMA

CITY           SKY/WX    TMP DP  RH WIND       PRES   REMARKS
BIRMINGHAM     CLEAR     35  29  78 CALM      30.27F
6HR MIN TEMP:  34; 6HR MAX TEMP:  43;

MONTGOMERY     CLEAR     31  26  82 CALM      30.30S
6HR MIN TEMP:  30; 6HR MAX TEMP:  42;

SHELBY CO ARPT CLEAR     32  30  92 CALM      30.27S
6HR MIN TEMP:  32; 6HR MAX TEMP:  40;

MAXWELL AFB    CLEAR     30  30  99 CALM      30.29R
6HR MIN TEMP:  30; 6HR MAX TEMP:  38;

GREENVILLE     FAIR      35  29  78 SW5       30.29S WCI  31
6HR MIN TEMP:  31; 6HR MAX TEMP:  39;

SELMA          FAIR      28  27  93 SE3       30.30S
PRATTVILLE     FAIR      29  28  99 CALM      30.29F
6HR MIN TEMP:  28; 6HR MAX TEMP:  35;

BESSEMER       FAIR      37  28  70 S6        30.26F WCI  32
6HR MIN TEMP:  37; 6HR MAX TEMP:  41;

TALLADEGA      FAIR      29  27  94 CALM      30.28F
6HR MIN TEMP:  28; 6HR MAX TEMP:  38;

PELL CITY      CLEAR     28  28 100 CALM      30.27F
MARION         FAIR      32  31  99 S8        30.28F WCI  24
6HR MIN TEMP:  31; 6HR MAX TEMP:  39;

SYLACAUGA      FAIR      29  29 100 CALM      30.28S
6HR MIN TEMP:  29; 6HR MAX TEMP:  33;

$$

ALZ019-021-028-029-037-038-045>048-110700-
EAST CENTRAL ALABAMA

CITY           SKY/WX    TMP DP  RH WIND       PRES   REMARKS
ANNISTON       CLEAR     27  24  89 SW5       30.26F WCI  22
6HR MIN TEMP:  27; 6HR MAX TEMP:  34;

ALEXANDER CITY CLEAR     29  28  94 CALM      30.27S
6HR MIN TEMP:  28; 6HR MAX TEMP:  33;

AUBURN         NOT AVBL
$$

ALZ051>064-110700-
SOUTHWEST ALABAMA

CITY           SKY/WX    TMP DP  RH WIND       PRES   REMARKS
MOBILE         CLEAR     36  34  92 CALM      30.31F
6HR MIN TEMP:  36; 6HR MAX TEMP:  45;

BROOKLEY FIELD CLEAR     37  37 100 SW3       30.33F
6HR MIN TEMP:  37; 6HR MAX TEMP:  47;

EVERGREEN      CLEAR     31  28  89 CALM      30.31F
6HR MIN TEMP:  30; 6HR MAX TEMP:  39;

$$

ALZ049-050-065>069-110700-
SOUTHEAST ALABAMA

CITY           SKY/WX    TMP DP  RH WIND       PRES   REMARKS
DOTHAN         CLEAR     34  30  85 SW5       30.34S WCI  30
6HR MIN TEMP:  34; 6HR MAX TEMP:  45;

OZARK          CLEAR     32  27  79 W3        30.30F
6HR MIN TEMP:  30; 6HR MAX TEMP:  42;

TROY           CLEAR     28  28 100 CALM      30.30F
6HR MIN TEMP:  28; 6HR MAX TEMP:  39;

EUFAULA        FAIR      29  27  92 CALM      30.28F
6HR MIN TEMP:  29; 6HR MAX TEMP:  35;

$$




USA.gov is the U.S. government's official web portal to all federal, state and local government web resources and services.